Location: Bruch
(44.2051°N, 0.4120°E)
Time: 04:06:37
(UTC+00:00)

ASTRO F (AKARI) - Pass Details

Date: 29 November 2020
Orbit: 398 x 519 km, 98.2° (Epoch: 24 January)

Event Time Altitude Azimuth Distance (km) Brightness Sun altitude
Rises 05:39:35 0° 14° (NNE) 2,322 8.0 -16.1°
Reaches altitude 10° 05:41:33 10° 15° (NNE) 1,462 7.0 -15.7°
Maximum altitude 05:44:40 85° 103° (ESE) 413 4.2 -15.2°
Drops below altitude 10° 05:47:49 10° 193° (SSW) 1,480 7.1 -14.7°
Sets 05:49:49 0° 194° (SSW) 2,353 8.1 -14.3°
